Time,TemperatureF,DewpointF,PressureIn,WindDirection,WindDirectionDegrees,WindSpeedMPH,WindSpeedGustMPH,Humidity,HourlyPrecipIn,Conditions,Clouds,dailyrainin,SoftwareType,DateUTC
2013-02-19 01:30:00,47.3,41.4,29.99,East,90,0.0,-999.0,80,0.00,,,0.00,Wunderground v.1.15,2013-02-19 09:30:00,
2013-02-19 01:35:00,47.3,41.4,29.99,East,90,0.0,-999.0,80,0.00,,,0.00,Wunderground v.1.15,2013-02-19 09:35:00,
2013-02-19 01:40:00,47.3,41.4,29.99,East,90,0.0,-999.0,80,0.00,,,0.00,Wunderground v.1.15,2013-02-19 09:40:00,
2013-02-19 01:45:00,47.3,40.5,29.99,East,90,0.0,-999.0,77,0.00,,,0.00,Wunderground v.1.15,2013-02-19 09:45:00,
2013-02-19 01:50:00,47.3,40.5,29.99,East,90,0.0,-999.0,77,0.00,,,0.00,Wunderground v.1.15,2013-02-19 09:50:00,
2013-02-19 01:55:00,47.3,40.5,29.99,East,90,0.0,-999.0,77,0.00,,,0.00,Wunderground v.1.15,2013-02-19 09:55:00,
2013-02-19 02:00:00,47.3,40.5,29.99,East,90,0.0,-999.0,77,0.00,,,0.00,Wunderground v.1.15,2013-02-19 10:00:00,
2013-02-19 02:05:00,47.3,40.5,29.99,East,90,0.0,-999.0,77,0.00,,,0.00,Wunderground v.1.15,2013-02-19 10:05:00,
2013-02-19 02:10:00,47.3,40.5,29.99,East,90,0.0,-999.0,77,0.00,,,0.00,Wunderground v.1.15,2013-02-19 10:10:00,
2013-02-19 02:15:00,46.9,40.4,29.97,SE,135,0.0,-999.0,78,0.00,,,0.00,Wunderground v.1.15,2013-02-19 10:15:00,
2013-02-19 02:20:00,46.9,40.4,29.97,SE,135,0.0,-999.0,78,0.00,,,0.00,Wunderground v.1.15,2013-02-19 10:20:00,
2013-02-19 02:25:00,46.9,40.4,29.97,SE,135,0.0,-999.0,78,0.00,,,0.00,Wunderground v.1.15,2013-02-19 10:25:00,
2013-02-19 02:30:00,46.9,40.4,29.97,SE,135,0.0,-999.0,78,0.00,,,0.00,Wunderground v.1.15,2013-02-19 10:30:00,
2013-02-19 02:35:00,46.9,40.4,29.97,SE,135,0.0,-999.0,78,0.00,,,0.00,Wunderground v.1.15,2013-02-19 10:35:00,
2013-02-19 02:40:00,46.9,40.4,29.97,SE,135,0.0,-999.0,78,0.00,,,0.00,Wunderground v.1.15,2013-02-19 10:40:00,
2013-02-19 02:45:00,46.3,40.5,29.97,N/A,-737280,0.0,-999.0,80,0.00,,,0.00,Wunderground v.1.15,2013-02-19 10:45:00,
2013-02-19 02:50:00,46.3,40.5,29.97,N/A,-737280,0.0,-999.0,80,0.00,,,0.00,Wunderground v.1.15,2013-02-19 10:50:00,
2013-02-19 02:55:00,46.3,40.5,29.97,N/A,-737280,0.0,-999.0,80,0.00,,,0.00,Wunderground v.1.15,2013-02-19 10:55:00,
2013-02-19 03:00:00,46.3,40.5,29.97,N/A,-737280,0.0,-999.0,80,0.00,,,0.00,Wunderground v.1.15,2013-02-19 11:00:00,
2013-02-19 03:05:00,46.3,40.5,29.97,N/A,-737280,0.0,-999.0,80,0.00,,,0.00,Wunderground v.1.15,2013-02-19 11:05:00,
2013-02-19 03:10:00,46.3,40.5,29.97,N/A,-737280,0.0,-999.0,80,0.00,,,0.00,Wunderground v.1.15,2013-02-19 11:10:00,
2013-02-19 03:15:00,45.5,40.3,29.96,N/A,-737280,0.0,-999.0,82,0.00,,,0.00,Wunderground v.1.15,2013-02-19 11:15:00,
2013-02-19 03:20:00,45.5,40.3,29.96,N/A,-737280,0.0,-999.0,82,0.00,,,0.00,Wunderground v.1.15,2013-02-19 11:20:00,
2013-02-19 03:25:00,45.5,40.3,29.96,N/A,-737280,0.0,-999.0,82,0.00,,,0.00,Wunderground v.1.15,2013-02-19 11:25:00,
2013-02-19 03:30:00,45.5,40.3,29.96,N/A,-737280,0.0,-999.0,82,0.00,,,0.00,Wunderground v.1.15,2013-02-19 11:30:00,
2013-02-19 03:35:00,45.5,40.3,29.96,N/A,-737280,0.0,-999.0,82,0.00,,,0.00,Wunderground v.1.15,2013-02-19 11:35:00,
2013-02-19 03:40:00,45.5,40.3,29.96,N/A,-737280,0.0,-999.0,82,0.00,,,0.00,Wunderground v.1.15,2013-02-19 11:40:00,
2013-02-19 03:45:00,45.3,40.4,29.96,N/A,-737280,0.0,-999.0,83,0.00,,,0.00,Wunderground v.1.15,2013-02-19 11:45:00,
2013-02-19 03:50:00,45.3,40.4,29.96,N/A,-737280,0.0,-999.0,83,0.00,,,0.00,Wunderground v.1.15,2013-02-19 11:50:00,
2013-02-19 03:55:00,45.3,40.4,29.96,N/A,-737280,0.0,-999.0,83,0.00,,,0.00,Wunderground v.1.15,2013-02-19 11:55:00,
2013-02-19 04:26:00,45.6,41.0,29.97,WSW,246,0.0,6.0,84,0.00,,,0.00,Wunderground v.1.15,2013-02-19 12:26:00,
2013-02-19 04:30:00,45.7,40.8,29.97,ESE,105,0.0,6.0,83,0.00,,,0.00,Wunderground v.1.15,2013-02-19 12:30:00,
2013-02-19 04:34:00,45.8,40.9,29.97,ESE,104,0.0,6.0,83,0.00,,,0.00,Wunderground v.1.15,2013-02-19 12:34:00,
2013-02-19 04:40:00,45.9,41.0,29.97,ESE,105,0.0,0.0,83,0.00,,,0.00,Wunderground v.1.15,2013-02-19 12:40:00,
2013-02-19 04:47:00,46.1,40.9,29.97,ESE,105,0.0,0.0,82,0.00,,,0.00,Wunderground v.1.15,2013-02-19 12:47:00,
2013-02-19 04:54:00,46.4,41.2,29.98,ESE,105,0.0,0.0,82,0.00,,,0.00,Wunderground v.1.15,2013-02-19 12:54:00,
2013-02-19 05:00:00,46.5,41.3,29.98,ESE,104,0.0,0.0,82,0.00,,,0.00,Wunderground v.1.15,2013-02-19 13:00:00,
2013-02-19 05:06:00,46.5,41.6,29.97,ESE,105,0.0,0.0,83,0.00,,,0.00,Wunderground v.1.15,2013-02-19 13:06:00,
2013-02-19 05:12:00,46.8,41.6,29.97,ESE,105,0.0,0.0,82,0.00,,,0.00,Wunderground v.1.15,2013-02-19 13:12:00,
2013-02-19 05:18:00,47.0,41.8,29.97,ESE,104,0.0,0.0,82,0.00,,,0.00,Wunderground v.1.15,2013-02-19 13:18:00,
2013-02-19 05:24:00,47.0,41.8,29.97,ESE,105,0.0,0.0,82,0.00,,,0.00,Wunderground v.1.15,2013-02-19 13:24:00,
2013-02-19 05:30:00,46.9,41.7,29.97,ESE,104,0.0,0.0,82,0.00,,,0.00,Wunderground v.1.15,2013-02-19 13:30:00,
2013-02-19 05:36:00,46.8,41.6,29.97,ESE,104,0.0,0.0,82,0.00,,,0.00,Wunderground v.1.15,2013-02-19 13:36:00,
2013-02-19 05:42:00,46.7,41.8,29.97,ESE,105,0.0,0.0,83,0.00,,,0.00,Wunderground v.1.15,2013-02-19 13:42:00,
2013-02-19 05:48:00,46.7,41.8,29.97,ESE,105,0.0,0.0,83,0.00,,,0.00,Wunderground v.1.15,2013-02-19 13:48:00,
2013-02-19 05:54:00,46.7,41.8,29.97,ESE,104,0.0,0.0,83,0.00,,,0.00,Wunderground v.1.15,2013-02-19 13:54:00,
2013-02-19 06:00:00,46.7,41.8,29.97,ESE,105,0.0,0.0,83,0.00,,,0.00,Wunderground v.1.15,2013-02-19 14:00:00,
2013-02-19 06:06:00,46.6,41.7,29.96,ESE,104,0.0,0.0,83,0.00,,,0.00,Wunderground v.1.15,2013-02-19 14:06:00,
2013-02-19 06:12:00,46.6,41.7,29.96,ESE,104,0.0,0.0,83,0.00,,,0.00,Wunderground v.1.15,2013-02-19 14:12:00,
2013-02-19 06:18:00,46.6,41.7,29.96,ESE,105,0.0,0.0,83,0.00,,,0.00,Wunderground v.1.15,2013-02-19 14:18:00,
2013-02-19 06:24:00,46.5,41.9,29.96,ESE,105,0.0,0.0,84,0.00,,,0.00,Wunderground v.1.15,2013-02-19 14:24:00,
2013-02-19 06:30:00,46.5,41.9,29.96,ESE,104,0.0,0.0,84,0.00,,,0.00,Wunderground v.1.15,2013-02-19 14:30:00,
2013-02-19 06:36:00,46.6,42.0,29.96,ESE,105,0.0,0.0,84,0.00,,,0.00,Wunderground v.1.15,2013-02-19 14:36:00,
2013-02-19 06:42:00,46.5,41.9,29.96,ESE,104,0.0,0.0,84,0.00,,,0.00,Wunderground v.1.15,2013-02-19 14:42:00,
2013-02-19 06:48:00,46.5,41.9,29.96,ESE,105,0.0,0.0,84,0.00,,,0.00,Wunderground v.1.15,2013-02-19 14:48:00,
2013-02-19 06:54:00,46.6,42.3,29.96,ESE,105,0.0,0.0,85,0.00,,,0.00,Wunderground v.1.15,2013-02-19 14:54:00,
2013-02-19 07:00:00,46.5,42.2,29.96,ESE,104,0.0,0.0,85,0.00,,,0.00,Wunderground v.1.15,2013-02-19 15:00:00,
2013-02-19 07:06:00,46.6,42.3,29.96,ESE,105,0.0,0.0,85,0.00,,,0.00,Wunderground v.1.15,2013-02-19 15:06:00,
2013-02-19 07:12:00,46.6,42.3,29.96,ESE,104,0.0,0.0,85,0.00,,,0.00,Wunderground v.1.15,2013-02-19 15:12:00,
2013-02-19 07:18:00,46.7,42.4,29.97,ESE,105,0.0,0.0,85,0.00,,,0.00,Wunderground v.1.15,2013-02-19 15:18:00,
2013-02-19 07:24:00,46.9,42.3,29.97,ESE,104,0.0,0.0,84,0.00,,,0.00,Wunderground v.1.15,2013-02-19 15:24:00,
2013-02-19 07:30:00,47.2,42.6,29.97,ESE,104,0.0,0.0,84,0.00,,,0.00,Wunderground v.1.15,2013-02-19 15:30:00,
2013-02-19 07:36:00,47.4,42.8,29.97,ESE,104,0.0,0.0,84,0.00,,,0.00,Wunderground v.1.15,2013-02-19 15:36:00,
2013-02-19 07:42:00,47.7,43.4,29.97,ESE,117,0.0,0.0,85,0.00,,,0.00,Wunderground v.1.15,2013-02-19 15:42:00,
2013-02-19 07:48:00,47.8,43.2,29.97,SW,232,0.0,0.0,84,0.00,,,0.00,Wunderground v.1.15,2013-02-19 15:48:00,
2013-02-19 07:54:00,47.9,43.3,29.97,SW,232,0.0,0.0,84,0.00,,,0.00,Wunderground v.1.15,2013-02-19 15:54:00,
2013-02-19 08:00:00,48.2,43.9,29.97,SW,232,0.0,0.0,85,0.00,,,0.00,Wunderground v.1.15,2013-02-19 16:00:00,
2013-02-19 08:06:00,48.5,44.5,29.97,West,262,0.0,0.0,86,0.00,,,0.00,Wunderground v.1.15,2013-02-19 16:06:00,
2013-02-19 08:12:00,48.8,45.1,29.97,West,262,0.0,0.0,87,0.00,,,0.00,Wunderground v.1.15,2013-02-19 16:12:00,
2013-02-19 08:18:00,49.0,45.3,29.97,West,262,0.0,0.0,87,0.00,,,0.00,Wunderground v.1.15,2013-02-19 16:18:00,
2013-02-19 08:24:00,49.3,45.6,29.96,West,262,0.0,0.0,87,0.00,,,0.00,Wunderground v.1.15,2013-02-19 16:24:00,
2013-02-19 08:30:00,49.6,45.9,29.96,West,262,0.0,0.0,87,0.00,,,0.00,Wunderground v.1.15,2013-02-19 16:30:00,
2013-02-19 08:36:00,49.9,45.9,29.96,SW,231,0.0,1.0,86,0.00,,,0.00,Wunderground v.1.15,2013-02-19 16:36:00,
2013-02-19 08:42:00,50.1,46.1,29.96,West,266,0.0,0.0,86,0.00,,,0.00,Wunderground v.1.15,2013-02-19 16:42:00,
2013-02-19 08:48:00,50.1,45.8,29.96,WSW,250,0.0,2.0,85,0.00,,,0.00,Wunderground v.1.15,2013-02-19 16:48:00,
2013-02-19 08:54:00,50.3,45.6,29.96,SW,226,0.0,1.0,84,0.00,,,0.00,Wunderground v.1.15,2013-02-19 16:54:00,
2013-02-19 09:00:00,50.4,45.7,29.96,WSW,248,1.0,1.0,84,0.00,,,0.00,Wunderground v.1.15,2013-02-19 17:00:00,
2013-02-19 09:06:00,50.5,45.8,29.96,NNW,333,1.0,1.0,84,0.00,,,0.00,Wunderground v.1.15,2013-02-19 17:06:00,
2013-02-19 09:12:00,50.8,45.8,29.96,SW,228,1.0,2.0,83,0.00,,,0.00,Wunderground v.1.15,2013-02-19 17:12:00,
2013-02-19 09:18:00,51.1,45.8,29.96,WSW,241,1.0,2.0,82,0.00,,,0.00,Wunderground v.1.15,2013-02-19 17:18:00,
2013-02-19 09:24:00,51.2,46.2,29.96,West,262,1.0,1.0,83,0.00,,,0.00,Wunderground v.1.15,2013-02-19 17:24:00,
2013-02-19 09:30:00,51.5,45.9,29.96,West,267,1.0,1.0,81,0.00,,,0.00,Wunderground v.1.15,2013-02-19 17:30:00,
2013-02-19 09:36:00,51.6,45.0,29.95,WSW,245,2.0,4.0,78,0.00,,,0.00,Wunderground v.1.15,2013-02-19 17:36:00,
2013-02-19 09:42:00,50.8,44.5,29.95,West,265,4.0,6.0,79,0.00,,,0.00,Wunderground v.1.15,2013-02-19 17:42:00,
2013-02-19 09:48:00,50.3,44.4,29.95,WSW,258,4.0,6.0,80,0.00,,,0.00,Wunderground v.1.15,2013-02-19 17:48:00,
2013-02-19 09:54:00,50.2,44.3,29.95,SW,214,3.0,4.0,80,0.00,,,0.00,Wunderground v.1.15,2013-02-19 17:54:00,
2013-02-19 10:00:00,50.4,44.8,29.95,WSW,240,3.0,3.0,81,0.00,,,0.00,Wunderground v.1.15,2013-02-19 18:00:00,
2013-02-19 10:06:00,50.6,45.0,29.95,WSW,250,3.0,4.0,81,0.00,,,0.00,Wunderground v.1.15,2013-02-19 18:06:00,
2013-02-19 10:12:00,50.9,44.6,29.95,WNW,288,2.0,6.0,79,0.00,,,0.00,Wunderground v.1.15,2013-02-19 18:12:00,
2013-02-19 10:18:00,51.2,45.2,29.95,SW,217,2.0,6.0,80,0.00,,,0.00,Wunderground v.1.15,2013-02-19 18:18:00,
2013-02-19 10:24:00,51.3,45.0,29.95,SW,225,2.0,4.0,79,0.00,,,0.00,Wunderground v.1.15,2013-02-19 18:24:00,
2013-02-19 10:30:00,51.6,45.0,29.95,SW,231,3.0,3.0,78,0.00,,,0.00,Wunderground v.1.15,2013-02-19 18:30:00,
2013-02-19 10:36:00,51.7,44.4,29.95,WSW,250,3.0,5.0,76,0.00,,,0.00,Wunderground v.1.15,2013-02-19 18:36:00,
2013-02-19 10:42:00,51.8,44.8,29.95,SW,228,3.0,5.0,77,0.00,,,0.00,Wunderground v.1.15,2013-02-19 18:42:00,
2013-02-19 10:48:00,51.6,45.0,29.95,SW,231,3.0,5.0,78,0.00,,,0.00,Wunderground v.1.15,2013-02-19 18:48:00,
2013-02-19 10:54:00,51.7,44.7,29.94,South,191,3.0,5.0,77,0.00,,,0.00,Wunderground v.1.15,2013-02-19 18:54:00,
2013-02-19 11:00:00,51.6,44.6,29.94,WSW,240,3.0,6.0,77,0.00,,,0.00,Wunderground v.1.15,2013-02-19 19:00:00,
2013-02-19 11:06:00,51.7,44.0,29.93,SW,221,3.0,6.0,75,0.00,,,0.00,Wunderground v.1.15,2013-02-19 19:06:00,
2013-02-19 11:12:00,52.0,44.7,29.93,SW,225,2.0,3.0,76,0.00,,,0.00,Wunderground v.1.15,2013-02-19 19:12:00,
2013-02-19 11:18:00,52.1,44.1,29.93,SW,235,2.0,7.0,74,0.00,,,0.00,Wunderground v.1.15,2013-02-19 19:18:00,
2013-02-19 11:24:00,52.0,44.0,29.93,SW,226,3.0,3.0,74,0.00,,,0.00,Wunderground v.1.15,2013-02-19 19:24:00,
2013-02-19 11:30:00,52.4,44.0,29.93,WSW,246,3.0,3.0,73,0.00,,,0.00,Wunderground v.1.15,2013-02-19 19:30:00,
2013-02-19 11:36:00,52.8,44.4,29.93,SW,233,3.0,8.0,73,0.00,,,0.00,Wunderground v.1.15,2013-02-19 19:36:00,
2013-02-19 11:42:00,52.8,44.4,29.92,SW,228,3.0,8.0,73,0.00,,,0.00,Wunderground v.1.15,2013-02-19 19:42:00,
2013-02-19 11:48:00,52.7,44.6,29.92,SW,226,3.0,8.0,74,0.00,,,0.00,Wunderground v.1.15,2013-02-19 19:48:00,
2013-02-19 11:54:00,52.6,43.8,29.91,SW,232,3.0,8.0,72,0.00,,,0.00,Wunderground v.1.15,2013-02-19 19:54:00,
2013-02-19 12:00:00,52.9,43.7,29.91,West,264,2.0,4.0,71,0.00,,,0.00,Wunderground v.1.15,2013-02-19 20:00:00,
2013-02-19 12:06:00,53.3,43.4,29.91,SW,231,3.0,5.0,69,0.00,,,0.00,Wunderground v.1.15,2013-02-19 20:06:00,
2013-02-19 12:12:00,53.7,43.8,29.91,SW,228,3.0,4.0,69,0.00,,,0.00,Wunderground v.1.15,2013-02-19 20:12:00,
2013-02-19 12:18:00,53.9,44.0,29.91,SW,226,3.0,4.0,69,0.00,,,0.00,Wunderground v.1.15,2013-02-19 20:18:00,
2013-02-19 12:24:00,53.7,43.4,29.90,SW,215,4.0,7.0,68,0.00,,,0.00,Wunderground v.1.15,2013-02-19 20:24:00,
2013-02-19 12:30:00,53.2,43.3,29.90,SW,226,5.0,5.0,69,0.00,,,0.00,Wunderground v.1.15,2013-02-19 20:30:00,
2013-02-19 12:36:00,52.9,43.7,29.90,SSW,203,4.0,9.0,71,0.00,,,0.00,Wunderground v.1.15,2013-02-19 20:36:00,
2013-02-19 12:42:00,52.8,43.7,29.90,SW,218,4.0,8.0,71,0.00,,,0.00,Wunderground v.1.15,2013-02-19 20:42:00,
2013-02-19 12:48:00,52.6,43.8,29.90,SW,231,5.0,9.0,72,0.00,,,0.00,Wunderground v.1.15,2013-02-19 20:48:00,
2013-02-19 12:54:00,53.0,43.8,29.89,West,268,6.0,8.0,71,0.00,,,0.00,Wunderground v.1.15,2013-02-19 20:54:00,
2013-02-19 13:00:00,53.1,44.3,29.89,WSW,243,6.0,6.0,72,0.00,,,0.00,Wunderground v.1.15,2013-02-19 21:00:00,
2013-02-19 13:06:00,53.2,44.0,29.89,WSW,248,6.0,7.0,71,0.00,,,0.00,Wunderground v.1.15,2013-02-19 21:06:00,
2013-02-19 13:12:00,53.0,44.6,29.89,West,266,6.0,6.0,73,0.00,,,0.00,Wunderground v.1.15,2013-02-19 21:12:00,
2013-02-19 13:18:00,53.3,44.5,29.88,WSW,250,5.0,6.0,72,0.00,,,0.00,Wunderground v.1.15,2013-02-19 21:18:00,
2013-02-19 13:24:00,53.9,44.0,29.88,SW,236,5.0,8.0,69,0.00,,,0.00,Wunderground v.1.15,2013-02-19 21:24:00,
2013-02-19 13:30:00,53.4,43.9,29.88,SW,222,6.0,6.0,70,0.00,,,0.00,Wunderground v.1.15,2013-02-19 21:30:00,
2013-02-19 13:36:00,54.4,43.3,29.87,West,268,6.0,12.0,66,0.00,,,0.00,Wunderground v.1.15,2013-02-19 21:36:00,
2013-02-19 13:42:00,55.0,42.6,29.87,SW,236,5.0,12.0,63,0.00,,,0.00,Wunderground v.1.15,2013-02-19 21:42:00,
2013-02-19 13:48:00,54.3,42.8,29.87,WSW,248,5.0,12.0,65,0.00,,,0.00,Wunderground v.1.15,2013-02-19 21:48:00,
2013-02-19 13:54:00,53.9,42.4,29.86,SW,216,6.0,12.0,65,0.00,,,0.00,Wunderground v.1.15,2013-02-19 21:54:00,
2013-02-19 14:00:00,53.4,42.3,29.86,WSW,248,6.0,6.0,66,0.00,,,0.00,Wunderground v.1.15,2013-02-19 22:00:00,
2013-02-19 14:06:00,53.2,42.1,29.87,SW,224,6.0,7.0,66,0.00,,,0.00,Wunderground v.1.15,2013-02-19 22:06:00,
2013-02-19 14:12:00,53.3,42.6,29.87,SSW,211,5.0,6.0,67,0.00,,,0.00,Wunderground v.1.15,2013-02-19 22:12:00,
2013-02-19 14:18:00,52.6,41.6,29.87,South,183,7.0,7.0,66,0.00,,,0.00,Wunderground v.1.15,2013-02-19 22:18:00,
2013-02-19 14:24:00,52.5,42.2,29.87,SW,232,6.0,7.0,68,0.00,,,0.00,Wunderground v.1.15,2013-02-19 22:24:00,
2013-02-19 14:30:00,52.5,42.6,29.87,WSW,241,5.0,6.0,69,0.00,,,0.00,Wunderground v.1.15,2013-02-19 22:30:00,
2013-02-19 14:36:00,52.3,42.4,29.86,SW,231,5.0,13.0,69,0.00,,,0.00,Wunderground v.1.15,2013-02-19 22:36:00,
2013-02-19 14:42:00,52.5,42.6,29.86,SW,221,5.0,13.0,69,0.00,,,0.00,Wunderground v.1.15,2013-02-19 22:42:00,
2013-02-19 14:48:00,52.6,42.3,29.86,WNW,291,5.0,13.0,68,0.00,,,0.00,Wunderground v.1.15,2013-02-19 22:48:00,
2013-02-19 14:54:00,52.9,42.2,29.85,SW,231,5.0,13.0,67,0.00,,,0.00,Wunderground v.1.15,2013-02-19 22:54:00,
2013-02-19 15:00:00,52.8,41.7,29.85,WSW,248,5.0,5.0,66,0.00,,,0.00,Wunderground v.1.15,2013-02-19 23:00:00,
2013-02-19 15:06:00,52.6,41.6,29.85,WSW,242,5.0,5.0,66,0.00,,,0.00,Wunderground v.1.15,2013-02-19 23:06:00,
2013-02-19 15:12:00,52.8,41.7,29.85,SW,228,5.0,7.0,66,0.00,,,0.00,Wunderground v.1.15,2013-02-19 23:12:00,
2013-02-19 15:18:00,52.9,41.8,29.85,SW,228,5.0,7.0,66,0.00,,,0.00,Wunderground v.1.15,2013-02-19 23:18:00,
2013-02-19 15:24:00,52.7,41.7,29.84,WSW,238,5.0,6.0,66,0.00,,,0.00,Wunderground v.1.15,2013-02-19 23:24:00,
2013-02-19 15:30:00,52.4,41.8,29.84,SSW,201,5.0,5.0,67,0.00,,,0.00,Wunderground v.1.15,2013-02-19 23:30:00,
2013-02-19 15:36:00,52.2,41.2,29.84,SW,218,4.0,13.0,66,0.00,,,0.00,Wunderground v.1.15,2013-02-19 23:36:00,
2013-02-19 15:42:00,51.9,40.9,29.83,SW,214,4.0,13.0,66,0.00,,,0.00,Wunderground v.1.15,2013-02-19 23:42:00,
2013-02-19 15:48:00,51.6,41.0,29.83,SW,226,5.0,13.0,67,0.00,,,0.00,Wunderground v.1.15,2013-02-19 23:48:00,
2013-02-19 15:54:00,51.4,41.6,29.83,WSW,241,4.0,13.0,69,0.00,,,0.00,Wunderground v.1.15,2013-02-19 23:54:00,
2013-02-19 16:00:00,51.2,41.0,29.82,SW,219,4.0,4.0,68,0.00,,,0.00,Wunderground v.1.15,2013-02-20 00:00:00,
2013-02-19 16:06:00,51.1,41.3,29.82,SW,226,4.0,4.0,69,0.00,,,0.00,Wunderground v.1.15,2013-02-20 00:06:00,
2013-02-19 16:12:00,51.0,41.2,29.82,SW,214,4.0,4.0,69,0.00,,,0.00,Wunderground v.1.15,2013-02-20 00:12:00,
2013-02-19 16:18:00,50.7,40.9,29.82,SW,215,4.0,6.0,69,0.00,,,0.00,Wunderground v.1.15,2013-02-20 00:18:00,
2013-02-19 16:24:00,50.6,41.5,29.82,SW,233,5.0,6.0,71,0.00,,,0.00,Wunderground v.1.15,2013-02-20 00:24:00,
2013-02-19 16:30:00,50.5,42.2,29.82,SSW,209,5.0,5.0,73,0.00,,,0.00,Wunderground v.1.15,2013-02-20 00:30:00,
2013-02-19 16:36:00,50.3,42.3,29.82,SW,226,5.0,11.0,74,0.00,,,0.00,Wunderground v.1.15,2013-02-20 00:36:00,
2013-02-19 16:42:00,50.0,42.7,29.82,WSW,238,6.0,11.0,76,0.00,,,0.00,Wunderground v.1.15,2013-02-20 00:42:00,
2013-02-19 16:48:00,49.9,42.6,29.81,SW,226,6.0,11.0,76,0.00,,,0.00,Wunderground v.1.15,2013-02-20 00:48:00,
2013-02-19 16:54:00,49.7,42.4,29.81,WSW,255,6.0,11.0,76,0.00,,,0.00,Wunderground v.1.15,2013-02-20 00:54:00,
2013-02-19 17:00:00,49.7,42.4,29.81,WSW,256,5.0,7.0,76,0.00,,,0.00,Wunderground v.1.15,2013-02-20 01:00:00,
2013-02-19 17:06:00,49.6,42.7,29.81,SW,221,5.0,7.0,77,0.00,,,0.00,Wunderground v.1.15,2013-02-20 01:06:00,
2013-02-19 17:12:00,49.4,42.8,29.81,WSW,240,5.0,9.0,78,0.00,,,0.00,Wunderground v.1.15,2013-02-20 01:12:00,
2013-02-19 17:18:00,49.3,42.7,29.81,WSW,246,5.0,9.0,78,0.00,,,0.00,Wunderground v.1.15,2013-02-20 01:18:00,
2013-02-19 17:24:00,49.2,43.0,29.81,SW,224,5.0,5.0,79,0.00,,,0.00,Wunderground v.1.15,2013-02-20 01:24:00,
2013-02-19 17:30:00,49.2,43.3,29.81,WSW,253,4.0,4.0,80,0.00,,,0.00,Wunderground v.1.15,2013-02-20 01:30:00,
2013-02-19 17:36:00,49.1,43.2,29.80,SSE,167,3.0,11.0,80,0.00,,,0.00,Wunderground v.1.15,2013-02-20 01:36:00,
2013-02-19 17:42:00,49.0,43.4,29.80,WSW,252,4.0,11.0,81,0.00,,,0.00,Wunderground v.1.15,2013-02-20 01:42:00,
2013-02-19 17:48:00,48.9,43.6,29.80,SW,229,4.0,11.0,82,0.00,,,0.00,Wunderground v.1.15,2013-02-20 01:48:00,
2013-02-19 17:54:00,48.9,43.6,29.80,WSW,257,4.0,7.0,82,0.00,,,0.00,Wunderground v.1.15,2013-02-20 01:54:00,
2013-02-19 18:00:00,48.8,43.5,29.81,SW,224,4.0,4.0,82,0.00,,,0.00,Wunderground v.1.15,2013-02-20 02:00:00,
2013-02-19 18:06:00,48.7,43.8,29.80,SW,228,3.0,5.0,83,0.00,,,0.00,Wunderground v.1.15,2013-02-20 02:06:00,
2013-02-19 18:12:00,48.3,43.7,29.80,WSW,253,3.0,3.0,84,0.00,,,0.00,Wunderground v.1.15,2013-02-20 02:12:00,
2013-02-19 18:18:00,47.8,42.9,29.80,SW,218,4.0,6.0,83,0.00,,,0.00,Wunderground v.1.15,2013-02-20 02:18:00,
2013-02-19 18:24:00,47.6,43.0,29.80,SW,231,4.0,4.0,84,0.00,,,0.00,Wunderground v.1.15,2013-02-20 02:24:00,
2013-02-19 18:30:00,47.5,42.9,29.80,SW,236,3.0,3.0,84,0.00,,,0.00,Wunderground v.1.15,2013-02-20 02:30:00,
2013-02-19 18:36:00,47.4,43.1,29.80,SW,229,2.0,11.0,85,0.00,,,0.00,Wunderground v.1.15,2013-02-20 02:36:00,
2013-02-19 18:42:00,47.2,42.3,29.79,SSW,211,3.0,11.0,83,0.00,,,0.00,Wunderground v.1.15,2013-02-20 02:42:00,
2013-02-19 18:48:00,47.3,42.4,29.79,WSW,256,4.0,11.0,83,0.00,,,0.00,Wunderground v.1.15,2013-02-20 02:48:00,
2013-02-19 18:54:00,47.3,42.1,29.78,WSW,240,3.0,11.0,82,0.00,,,0.00,Wunderground v.1.15,2013-02-20 02:54:00,
2013-02-19 19:26:00,44.8,41.2,29.79,West,264,7.0,7.0,87,0.22,,,0.05,Wunderground v.1.15,2013-02-20 03:26:00,
2013-02-19 19:32:00,43.7,41.0,29.79,SW,232,6.0,9.0,90,0.31,,,0.08,Wunderground v.1.15,2013-02-20 03:32:00,
2013-02-19 19:38:00,43.4,40.9,29.79,WSW,254,4.0,4.0,91,0.30,,,0.11,Wunderground v.1.15,2013-02-20 03:38:00,
2013-02-19 19:44:00,43.3,41.4,29.79,SW,219,4.0,6.0,93,0.23,,,0.13,Wunderground v.1.15,2013-02-20 03:44:00,
2013-02-19 19:50:00,43.5,41.9,29.78,SW,216,4.0,4.0,94,0.14,,,0.14,Wunderground v.1.15,2013-02-20 03:50:00,
2013-02-19 19:56:00,43.6,42.0,29.78,SW,233,4.0,4.0,94,0.18,,,0.16,Wunderground v.1.15,2013-02-20 03:56:00,
2013-02-19 20:02:00,43.7,42.1,29.78,SW,229,3.0,3.0,94,0.13,,,0.17,Wunderground v.1.15,2013-02-20 04:02:00,
2013-02-19 20:08:00,43.8,42.2,29.77,South,173,3.0,5.0,94,0.10,,,0.18,Wunderground v.1.15,2013-02-20 04:08:00,
2013-02-19 20:14:00,43.9,42.6,29.77,WSW,246,2.0,2.0,95,0.06,,,0.18,Wunderground v.1.15,2013-02-20 04:14:00,
2013-02-19 20:20:00,44.1,42.8,29.77,SW,233,2.0,2.0,95,0.04,,,0.18,Wunderground v.1.15,2013-02-20 04:20:00,
2013-02-19 20:26:00,44.3,43.0,29.76,SW,222,2.0,3.0,95,0.00,,,0.18,Wunderground v.1.15,2013-02-20 04:26:00,
2013-02-19 20:32:00,44.4,43.1,29.77,SW,226,3.0,19.0,95,0.00,,,0.18,Wunderground v.1.15,2013-02-20 04:32:00,
2013-02-19 20:38:00,44.4,43.1,29.76,WSW,255,3.0,19.0,95,0.00,,,0.18,Wunderground v.1.15,2013-02-20 04:38:00,
2013-02-19 20:44:00,44.5,43.4,29.77,SW,229,3.0,19.0,96,0.00,,,0.18,Wunderground v.1.15,2013-02-20 04:44:00,
2013-02-19 20:50:00,44.6,43.5,29.77,SW,232,2.0,2.0,96,0.00,,,0.18,Wunderground v.1.15,2013-02-20 04:50:00,
2013-02-19 20:56:00,44.6,43.3,29.77,SW,226,3.0,19.0,95,0.00,,,0.18,Wunderground v.1.15,2013-02-20 04:56:00,
2013-02-19 21:00:00,44.6,43.5,29.77,SW,221,3.0,3.0,96,0.00,,,0.18,Wunderground v.1.15,2013-02-20 05:00:00,
2013-02-19 21:04:00,44.6,43.3,29.77,SW,226,4.0,9.0,95,0.00,,,0.18,Wunderground v.1.15,2013-02-20 05:04:00,
2013-02-19 21:10:00,44.5,43.2,29.77,WSW,254,3.0,3.0,95,0.00,,,0.18,Wunderground v.1.15,2013-02-20 05:10:00,
2013-02-19 21:12:00,44.4,43.1,29.77,SW,229,3.0,3.0,95,0.00,,,0.18,Wunderground v.1.15,2013-02-20 05:12:00,
2013-02-19 21:14:00,44.4,43.1,29.77,SSW,210,3.0,3.0,95,0.00,,,0.18,Wunderground v.1.15,2013-02-20 05:14:00,
2013-02-19 21:20:00,44.2,42.9,29.76,South,188,3.0,3.0,95,0.00,,,0.18,Wunderground v.1.15,2013-02-20 05:20:00,
2013-02-19 21:26:00,43.9,42.3,29.76,SSW,210,3.0,3.0,94,0.00,,,0.18,Wunderground v.1.15,2013-02-20 05:26:00,
2013-02-19 21:32:00,43.9,42.3,29.76,SSW,206,2.0,6.0,94,0.00,,,0.18,Wunderground v.1.15,2013-02-20 05:32:00,
2013-02-19 21:38:00,44.1,42.8,29.76,SW,214,2.0,6.0,95,0.00,,,0.18,Wunderground v.1.15,2013-02-20 05:38:00,
2013-02-19 21:44:00,44.1,42.5,29.77,SW,224,3.0,6.0,94,0.00,,,0.18,Wunderground v.1.15,2013-02-20 05:44:00,
2013-02-19 21:50:00,43.9,42.3,29.76,WSW,250,4.0,6.0,94,0.00,,,0.18,Wunderground v.1.15,2013-02-20 05:50:00,
2013-02-19 21:56:00,44.0,42.4,29.77,WSW,238,5.0,7.0,94,0.00,,,0.18,Wunderground v.1.15,2013-02-20 05:56:00,
2013-02-19 22:02:00,44.0,42.1,29.77,WSW,256,4.0,4.0,93,0.00,,,0.18,Wunderground v.1.15,2013-02-20 06:02:00,
2013-02-19 22:08:00,43.9,42.0,29.76,SSW,211,4.0,6.0,93,0.00,,,0.18,Wunderground v.1.15,2013-02-20 06:08:00,
2013-02-19 22:14:00,43.7,41.5,29.77,SW,231,4.0,7.0,92,0.00,,,0.18,Wunderground v.1.15,2013-02-20 06:14:00,
2013-02-19 22:20:00,43.5,41.0,29.77,WSW,238,4.0,4.0,91,0.00,,,0.18,Wunderground v.1.15,2013-02-20 06:20:00,
2013-02-19 22:26:00,43.3,40.0,29.76,SW,219,4.0,4.0,88,0.00,,,0.18,Wunderground v.1.15,2013-02-20 06:26:00,
2013-02-19 22:32:00,43.3,39.7,29.75,WSW,250,4.0,10.0,87,0.00,,,0.18,Wunderground v.1.15,2013-02-20 06:32:00,
2013-02-19 22:38:00,43.3,39.7,29.76,SSW,211,3.0,10.0,87,0.00,,,0.18,Wunderground v.1.15,2013-02-20 06:38:00,
2013-02-19 22:44:00,43.3,39.4,29.76,WSW,247,3.0,10.0,86,0.00,,,0.18,Wunderground v.1.15,2013-02-20 06:44:00,
2013-02-19 22:50:00,43.4,39.5,29.76,SW,225,3.0,10.0,86,0.00,,,0.18,Wunderground v.1.15,2013-02-20 06:50:00,
2013-02-19 22:56:00,43.5,39.3,29.76,SW,233,3.0,10.0,85,0.00,,,0.18,Wunderground v.1.15,2013-02-20 06:56:00,
2013-02-19 23:02:00,43.6,39.4,29.76,SW,221,3.0,3.0,85,0.00,,,0.18,Wunderground v.1.15,2013-02-20 07:02:00,
2013-02-19 23:08:00,43.5,39.3,29.76,West,274,3.0,3.0,85,0.00,,,0.18,Wunderground v.1.15,2013-02-20 07:08:00,
2013-02-19 23:14:00,43.4,39.2,29.76,SW,229,3.0,3.0,85,0.00,,,0.18,Wunderground v.1.15,2013-02-20 07:14:00,
2013-02-19 23:20:00,43.3,38.8,29.76,West,263,3.0,11.0,84,0.00,,,0.18,Wunderground v.1.15,2013-02-20 07:20:00,
2013-02-19 23:26:00,43.4,38.0,29.76,WSW,245,4.0,11.0,81,0.00,,,0.18,Wunderground v.1.15,2013-02-20 07:26:00,
2013-02-19 23:32:00,43.3,37.5,29.76,WSW,245,4.0,7.0,80,0.00,,,0.18,Wunderground v.1.15,2013-02-20 07:32:00,
2013-02-19 23:38:00,43.3,36.9,29.76,SSW,211,5.0,10.0,78,0.00,,,0.18,Wunderground v.1.15,2013-02-20 07:38:00,
2013-02-19 23:44:00,43.3,36.9,29.76,WSW,242,5.0,10.0,78,0.00,,,0.18,Wunderground v.1.15,2013-02-20 07:44:00,
2013-02-19 23:50:00,43.3,36.9,29.76,SW,223,5.0,10.0,78,0.00,,,0.18,Wunderground v.1.15,2013-02-20 07:50:00,
2013-02-19 23:56:00,43.3,36.6,29.76,SW,223,5.0,10.0,77,0.00,,,0.18,Wunderground v.1.15,2013-02-20 07:56:00,